13.05.2024;17:00;97
13.05.2024;16:00;100
13.05.2024;15:00;95
13.05.2024;14:00;98
13.05.2024;13:00;96
13.05.2024;12:00;97
13.05.2024;11:00;96
13.05.2024;10:00;84
13.05.2024;09:00;77
13.05.2024;08:00;69
13.05.2024;07:00;62
13.05.2024;06:00;84
13.05.2024;05:00;85
13.05.2024;04:00;62
13.05.2024;03:00;72
13.05.2024;02:00;77
13.05.2024;01:00;75
13.05.2024;00:00;75
12.05.2024;23:00;75
12.05.2024;22:00;80
12.05.2024;21:00;99
12.05.2024;20:00;113
12.05.2024;19:00;118
12.05.2024;18:00;108
12.05.2024;17:00;117
12.05.2024;16:00;119
12.05.2024;15:00;115
12.05.2024;14:00;117
12.05.2024;13:00;116
12.05.2024;12:00;112
12.05.2024;11:00;112
12.05.2024;10:00;93
12.05.2024;09:00;81
12.05.2024;08:00;73
12.05.2024;07:00;69
12.05.2024;06:00;71
12.05.2024;05:00;68
12.05.2024;04:00;70
12.05.2024;03:00;66
12.05.2024;02:00;72
12.05.2024;01:00;72
12.05.2024;00:00;74
11.05.2024;23:00;83
11.05.2024;22:00;82
11.05.2024;21:00;97
11.05.2024;20:00;117
11.05.2024;19:00;116
11.05.2024;18:00;115
